User: anonymous
Location: Unspecified
(0.0000°N, 0.0000°E)
Time: 06:11:53
(UTC+02:00)
Language:

Cosmos 2082 Rocket - Orbit

View from above orbital plane
View from above orbital plane
View from above satellite
View from above satellite

Ground track
Ground track

The orbit data is extracted from the following two-line orbital elements,

1 20625U 90046B   14105.16088794  .00000271  00000-0  16568-3 0  6927
2 20625 071.0000 061.5443 0012560 064.2283 022.8921 14.14513380233931
Epoch (UTC): 15 April 2014 03:51:40
Eccentricity: 0.0012560
inclination: 71.0000°
perigee height: 835 km
apogee height: 853 km
right ascension of ascending node: 61.5443°
argument of perigee: 64.2283°
revolutions per day: 14.14513380
mean anomaly at epoch: 22.8921°
orbit number at epoch: 23393

The dashed part of the orbit path shows where the satellite is in the earth's shadow,  

DLR